Regional Weather Roundup
Issued by NWS

Home | Current Version | Previous Version | Graphics & Text | Print | Product List | Glossary On
Versions: 1 2 3 4 5 6 7 8 9 10 11 12 13 14 15 16 17 18 19 20 21 22 23 24 25 26 27 28 29 30 31 32 33 34 35 36 37 38 39 40 41 42 43 44 45 46 47 48 49 50
000
ASUS45 KPSR 022200
RWRAZ

ARIZONA HOURLY REGIONAL WEATHER ROUNDUP
NATIONAL WEATHER SERVICE PHOENIX AZ
300 PM MST THU JUL 02 2015

NOTE: FAIR INDICATES FEW OR NO CLOUDS BELOW 12,000 FEET WITH NO
SIGNIFICANT WEATHER AND/OR OBSTRUCTIONS TO VISIBILITY.

AZZ001>003-036-022300-
NORTHWEST ARIZONA

CITY           SKY/WX    TMP DP  RH WIND       PRES   REMARKS
KINGMAN        SUNNY     98  51  20 W14G20    30.01F
$$

AZZ004>008-015-016-018-022300-
NORTH CENTRAL ARIZONA

CITY           SKY/WX    TMP DP  RH WIND       PRES   REMARKS
GRAND CANYON   MOSUNNY   85  50  29 VRB6      30.23F
WILLIAMS       MOSUNNY   79  54  41 W6        30.31F
PRESCOTT       MOSUNNY   90  53  28 SW10      30.12F
FLAGSTAFF      NOT AVBL
PAYSON         MOSUNNY   91  52  25 SW9G16    30.12F
PAGE           MOSUNNY  100  45  15 S5        29.99F
$$

AZZ009>014-017-022300-
NORTHEAST ARIZONA

CITY           SKY/WX    TMP DP  RH WIND       PRES   REMARKS
WINSLOW        NOT AVBL
SAINT JOHNS    MOSUNNY   86  54  33 NW10      30.13F
WINDOW ROCK    MOSUNNY   90  47  22 W10G18    30.18
SHOW LOW       SUNNY     84  45  24 NW9G18    30.19F
$$

AZZ023-022300-
GREATER PHOENIX AREA

CITY           SKY/WX    TMP DP  RH WIND       PRES   REMARKS
PHOENIX        MOSUNNY  105  56  19 SW14      29.81F HX 104
GLENDALE       MOSUNNY  104  57  21 S10G23    29.83F HX 103
LUKE AFB       SUNNY    104  59  22 SW23      29.79F HX 104
DEER VALLEY    SUNNY    101  57  23 W10       29.82F HX 100
SCOTTSDALE     SUNNY    102  57  22 W14       29.84F HX 101
MESA-FALCON    MOSUNNY  104  57  21 W14       29.84F HX 103
MESA-GATEWAY   MOSUNNY  100  59  25 MISG      29.86  HX 100
CHANDLER       MOSUNNY  102  57  22 W12       29.83F HX 101
$$

AZZ027-028-022300-
SOUTHWEST MARICOPA COUNTY AND PINAL COUNTY

CITY           SKY/WX    TMP DP  RH WIND       PRES   REMARKS
CASA GRANDE    SUNNY    102  59  24 W9G21     29.84F HX 102
$$

AZZ503-504-507>509-022300-
SOUTHEAST ARIZONA

CITY           SKY/WX    TMP DP  RH WIND       PRES   REMARKS
TUCSON         SUNNY     98  56  24 VRB6      29.93F
DAVIS-MONTHAN  SUNNY     98  58  26 NW13G22   29.92F
RYAN FIELD     SUNNY     99  57  25 CALM      29.93F
NOGALES        MOSUNNY   91  56  30 CALM      30.03F
SIERRA VISTA   PTSUNNY   89  54  30 NW12      30.09F
SAFFORD        SUNNY    103  52  18 W18G28    29.86F HX 100
$$

AZZ020-021-025-026-031-022300-
SOUTHWEST ARIZONA

CITY           SKY/WX    TMP DP  RH WIND       PRES   REMARKS
YUMA           NOT AVBL
$$

CAZ031-033-041-043-047-048-061-022300-
SOUTHERN CALIFORNIA

CITY           SKY/WX    TMP DP  RH WIND       PRES   REMARKS
DOWNTOWN L.A.  SUNNY     79  62  56 VRB6      29.95F
L.A. AIRPORT   MOSUNNY   74  63  68 W14       29.97F
SAN DIEGO      MOSUNNY   77  64  64 NW10      29.97S
BURBANK        SUNNY     86  56  35 S10G17    29.96S
ONTARIO        MOSUNNY   91  56  30 W10G20    29.95F
RIVERSIDE      MOSUNNY   92  48  22 W12G21    29.94F
PALM SPRINGS   MOSUNNY  106  56  19 N9G23     29.81F HX 105
EL CENTRO NAS  MOSUNNY  109  55  17 N8        29.78F HX 108
IMPERIAL       SUNNY    105  58  21 VRB6      29.76F HX 105
BLYTHE         SUNNY    103  63  27 VRB3      29.79F HX 105
$$

NVZ020-UTZ003-022300-
SOUTHERN NEVADA-UTAH

CITY           SKY/WX    TMP DP  RH WIND       PRES   REMARKS
LAS VEGAS      NOT AVBL
SALT LAKE CITY PTSUNNY   97  38  13 W12       30.01F
$$

NMZ009-TXZ055-022300-
NEW MEXICO-WEST TEXAS

CITY           SKY/WX    TMP DP  RH WIND       PRES   REMARKS
ALBUQUERQUE    PTSUNNY   88  48  25 E23G30    30.05F
EL PASO        PTSUNNY   99  49  18 VRB3      29.92F
$$


........................KEY........................
SKY/WX - SKY CONDITION/WEATHER
TMP    - TEMPERATURE IN FAHRENHEIT
DP     - DEW POINT IN FAHRENHEIT
RH     - RELATIVE HUMIDITY IN PERCENT
WIND   - DIRECTION AND SPEED IN MILES PER HOUR (MPH)
VRB    - VARIABLE WIND DIRECTION
PRES   - MEAN SEA LEVEL PRESSURE IN INCHES OF MERCURY
         F - FALLING PRESSURE   R - RISING PRESSURE
         S - STEADY PRESSURE
VSB    - VISIBILITY IN MILES
HX     - HEAT INDEX IN FAHRENHEIT
WCI    - WIND CHILL INDEX IN FAHRENHEIT
TC     - TEMPERATURE IN CELSIUS WHICH IS ALSO KNOWN AS
         TEMPERATURE IN CENTIGRADE
AFB    - AIR FORCE BASE
         LUKE AFB IS LUKE AIR FORCE BASE
         DAVIS-MONTHAN IS DAVIS-MONTHAN AIR FORCE BASE
NAS    - NAVAL AIR STATION
         EL CENTRO NAS IS EL CENTRO NAVAL AIR STATION
N/A    - NOT AVAILABLE




USA.gov is the U.S. government's official web portal to all federal, state and local government web resources and services.